Home   Weather   Durrës   Past weeks

Flag for Albania Past Weather in Durrës, Albania — Yesterday and Last 2 Weeks

Now
68 °F

Clear.


Feels Like: 68 °F
Forecast: 72 / 87 °F
Wind: No wind

Location: Tirana Airport

Current Time: Aug 17, 2017 at 4:06:33 am

Latest Report: Aug 17, 2017 at 2:50 am


Visibility: 4 mi

Pressure: 29.92 "Hg

Humidity: 78%

Dew Point: 61 °F

Location of DurrësLocation

Past Weather in Durrës — Graph

°F

Durrës Temperature Yesterday

Maximum temperature yesterday: 97 °F (at 1:50 pm)
Minimum temperature yesterday: 64 °F (at 4:50 am)
Average temperature yesterday: 79 °F

High & Low Weather Summary for the Past Weeks

 TemperatureHumidityPressure
High104 °F (Aug 11, 1:20 pm)94% (Aug 13, 5:20 am)30.04 "Hg (Aug 13, 5:20 am)
Low61 °F (Aug 14, 4:50 am)17% (Aug 8, 1:20 pm)29.80 "Hg (Aug 5, 4:20 pm)
Average82 °F52%29.91 "Hg
* Reported Aug 2 2:20 am — Aug 17 2:50 am, Durrës. Weather by CustomWeather, © 2017

Note: Actual official high and low records may vary slightly from our data, if they occured in-between our weather recording intervals... More about our weather records

Advertising

Durrës Weather History for the Previous 24 Hours

Scroll right to see more
 ConditionsComfort  
Time TempWeatherWind HumidityBarometerVisibility
2:50 am
Thu, Aug 17
68 °FClear.No wind78%29.92 "Hg4 mi
1:50 am70 °FClear.No wind73%29.92 "Hg4 mi
1:20 am70 °FClear.3 mph78%29.92 "Hg5 mi
12:50 am70 °FClear.5 mph73%29.95 "Hg5 mi
12:20 am73 °FClear.2 mph65%29.95 "Hg4 mi
11:50 pm
Wed, Aug 16
72 °FClear.5 mph69%29.95 "Hg4 mi
11:20 pm73 °FClear.2 mph65%29.95 "Hg2 mi
10:50 pm73 °FClear.2 mph65%29.95 "Hg4 mi
10:20 pm75 °FClear.2 mph61%29.95 "Hg10 mi
9:50 pm77 °FPassing clouds.2 mph54%29.95 "HgN/A
8:50 pm79 °FPassing clouds.5 mph51%29.95 "HgN/A
7:50 pm79 °FPartly cloudy.1 mph45%29.92 "HgN/A
7:20 pm81 °FBroken clouds.6 mph42%29.92 "HgN/A
6:50 pm82 °FScattered clouds.8 mph40%29.92 "HgN/A
6:20 pm84 °FScattered clouds.10 mph37%29.92 "HgN/A
5:50 pm84 °FPassing clouds.12 mph40%29.92 "HgN/A
5:20 pm88 °FSunny.14 mph40%29.92 "Hg10 mi
4:50 pm90 °FSunny.14 mph36%29.92 "Hg10 mi
4:20 pm91 °FSunny.14 mph34%29.92 "Hg10 mi
3:50 pm95 °FPassing clouds.12 mph28%29.92 "HgN/A
2:50 pm95 °FPassing clouds.10 mph25%29.92 "HgN/A
2:20 pm95 °FPassing clouds.10 mph26%29.92 "HgN/A
1:50 pm97 °FPassing clouds.8 mph23%29.92 "HgN/A
1:20 pm95 °FPassing clouds.7 mph23%29.95 "HgN/A
12:50 pm93 °FPassing clouds.7 mph23%29.95 "HgN/A
12:20 pm95 °FPassing clouds.7 mph23%29.95 "HgN/A
11:50 am91 °FPassing clouds.7 mph24%29.95 "HgN/A
11:20 am91 °FPassing clouds.5 mph28%29.98 "HgN/A
10:50 am90 °FPassing clouds.5 mph33%29.98 "HgN/A
10:20 am88 °FSunny.2 mph40%29.98 "Hg10 mi
9:20 am81 °FSunny.No wind51%29.98 "Hg10 mi
8:50 am77 °FSunny.2 mph61%29.98 "Hg10 mi
8:20 am73 °FPassing clouds.3 mph69%29.98 "HgN/A
7:50 am72 °FClear.5 mph73%29.98 "Hg4 mi
7:20 am70 °FClear.1 mph83%29.98 "Hg4 mi
6:50 am66 °FClear.1 mph94%29.98 "Hg4 mi
6:20 am64 °FClear.1 mph88%29.95 "Hg4 mi
5:50 am66 °FClear.3 mph88%29.95 "Hg4 mi
5:20 am64 °FClear.3 mph88%29.98 "Hg4 mi
4:50 am64 °FClear.2 mph88%29.98 "Hg5 mi
4:20 am66 °FClear.2 mph88%29.98 "Hg5 mi
Weather by CustomWeather, © 2017

See weather overviewHow to use our weather pages